Tracking 17150 objects as of 5-August-2015
HD Live streaming from Space Station

NAVSTAR 19 (USA 54)

Track NAVSTAR 19 (USA 54) now!
NAVSTAR 19 (USA 54) is classified as:


NORAD ID: 20533
Int'l Code: 1990-025A
Perigee: 20,951.5 km
Apogee: 21,178.7 km
Inclination: 55.4 °
Period: 753.8 minutes
Semi major axis: 27436 km
RCS: 0.6015 m2 (medium)
Launch date: March 26, 1990
Source: United States (US)
PRN:
Your satellite tracking list
Your tracking list is empty





NASA's NSSDC Master Catalog

Two Line Element Set (TLE):
1 20533U 90025A   15216.51153655 -.00000058  00000-0  00000+0 0  9998
2 20533 055.4173 030.4528 0041396 141.9897 219.3374 01.91037972179256

Source of the keplerian elements: AFSPC

N2YO: 325